Time,TemperatureF,DewpointF,PressureIn,WindDirection,WindDirectionDegrees,WindSpeedMPH,WindSpeedGustMPH,Humidity,HourlyPrecipIn,Conditions,Clouds,dailyrainin,SolarRadiationWatts/m^2,SoftwareType,DateUTC
2013-06-18 00:01:00,61.5,57.3,29.84,West,259,0.0,0.0,86,0.00,,SCT060,0.01,0.00,VWS V14.01,2013-06-18 04:01:00,
2013-06-18 00:11:00,61.5,57.3,29.84,West,259,0.0,3.0,86,0.00,,OVC100,0.00,0.00,VWS V14.01,2013-06-18 04:11:00,
2013-06-18 00:21:00,61.6,57.7,29.84,West,259,0.0,0.0,87,0.00,,OVC100,0.00,0.00,VWS V14.01,2013-06-18 04:21:00,
2013-06-18 00:31:00,62.4,57.2,29.84,West,259,0.0,1.0,83,0.00,,OVC100,0.00,0.00,VWS V14.01,2013-06-18 04:31:00,
2013-06-18 00:41:00,63.4,57.5,29.84,West,259,0.0,2.0,81,0.00,,OVC100,0.00,0.00,VWS V14.01,2013-06-18 04:41:00,
2013-06-18 00:51:00,63.2,57.3,29.84,West,259,0.0,3.0,81,0.00,,OVC100,0.00,0.00,VWS V14.01,2013-06-18 04:51:00,
2013-06-18 01:01:00,62.3,57.4,29.84,West,259,0.0,3.0,84,0.00,,OVC100,0.00,0.00,VWS V14.01,2013-06-18 05:01:00,
2013-06-18 01:11:00,61.5,57.6,29.84,West,259,0.0,0.0,87,0.00,,OVC075,0.00,0.00,VWS V14.01,2013-06-18 05:11:00,
2013-06-18 01:21:00,61.2,57.3,29.85,West,259,0.0,3.0,87,0.00,,OVC075,0.00,0.00,VWS V14.01,2013-06-18 05:21:00,
2013-06-18 01:31:00,61.3,57.7,29.84,West,259,0.0,0.0,88,0.00,,OVC075,0.00,0.00,VWS V14.01,2013-06-18 05:31:00,
2013-06-18 01:41:00,61.2,57.3,29.84,West,259,0.0,0.0,87,0.00,,OVC075,0.00,0.00,VWS V14.01,2013-06-18 05:41:00,
2013-06-18 01:51:00,61.3,57.4,29.84,West,259,0.0,3.0,87,0.00,,OVC075,0.00,0.00,VWS V14.01,2013-06-18 05:51:00,
2013-06-18 02:01:00,60.7,57.4,29.84,West,259,2.0,2.0,89,0.00,,OVC075,0.00,0.00,VWS V14.01,2013-06-18 06:01:00,
2013-06-18 02:11:00,60.2,57.3,29.84,West,259,0.0,2.0,90,0.00,,OVC060,0.00,0.00,VWS V14.01,2013-06-18 06:11:00,
2013-06-18 02:21:00,59.5,56.9,29.85,West,259,0.0,0.0,91,0.00,,OVC060,0.00,0.00,VWS V14.01,2013-06-18 06:21:00,
2013-06-18 02:31:00,59.2,56.9,29.84,West,259,0.0,2.0,92,0.00,,OVC060,0.00,0.00,VWS V14.01,2013-06-18 06:31:00,
2013-06-18 02:41:00,58.7,56.7,29.84,West,259,0.0,2.0,93,0.00,,OVC060,0.00,0.00,VWS V14.01,2013-06-18 06:41:00,
2013-06-18 02:51:00,58.4,56.4,29.84,West,262,2.0,3.0,93,0.00,,OVC060,0.00,0.00,VWS V14.01,2013-06-18 06:51:00,
2013-06-18 03:01:00,58.0,56.3,29.84,West,262,1.0,4.0,94,0.00,,OVC060,0.00,0.00,VWS V14.01,2013-06-18 07:01:00,
2013-06-18 03:11:00,57.6,56.2,29.84,West,262,1.0,4.0,95,0.00,,OVC050,0.00,0.00,VWS V14.01,2013-06-18 07:11:00,
2013-06-18 03:21:00,57.5,56.1,29.84,West,262,0.0,1.0,95,0.00,,OVC050,0.00,0.00,VWS V14.01,2013-06-18 07:21:00,
2013-06-18 03:31:00,57.0,55.6,29.84,West,262,0.0,0.0,95,0.00,,OVC050,0.00,0.00,VWS V14.01,2013-06-18 07:31:00,
2013-06-18 03:41:00,56.7,55.3,29.84,West,262,0.0,0.0,95,0.00,,OVC050,0.00,0.00,VWS V14.01,2013-06-18 07:41:00,
2013-06-18 03:51:00,56.6,55.5,29.84,West,262,0.0,0.0,96,0.00,,OVC050,0.00,0.00,VWS V14.01,2013-06-18 07:51:00,
2013-06-18 04:01:00,56.6,55.5,29.84,West,262,0.0,0.0,96,0.00,,OVC050,0.00,0.00,VWS V14.01,2013-06-18 08:01:00,
2013-06-18 04:11:00,56.5,55.4,29.84,West,262,0.0,3.0,96,0.00,,FEW046,0.00,0.00,VWS V14.01,2013-06-18 08:11:00,
2013-06-18 04:21:00,56.0,54.9,29.85,West,262,0.0,0.0,96,0.00,,FEW046,0.00,0.00,VWS V14.01,2013-06-18 08:21:00,
2013-06-18 04:31:00,55.9,54.5,29.85,West,262,0.0,0.0,95,0.00,,FEW046,0.00,0.00,VWS V14.01,2013-06-18 08:31:00,
2013-06-18 04:41:00,56.0,54.6,29.85,West,262,0.0,0.0,95,0.00,,FEW046,0.00,0.00,VWS V14.01,2013-06-18 08:41:00,
2013-06-18 04:51:00,55.7,54.0,29.86,West,262,0.0,0.0,94,0.00,,FEW046,0.00,0.00,VWS V14.01,2013-06-18 08:51:00,
2013-06-18 05:01:00,55.7,54.0,29.86,West,262,0.0,0.0,94,0.00,,FEW046,0.00,5.00,VWS V14.01,2013-06-18 09:01:00,
2013-06-18 05:11:00,55.3,53.6,29.86,West,262,0.0,0.0,94,0.00,,FEW039,0.00,7.00,VWS V14.01,2013-06-18 09:11:00,
2013-06-18 05:21:00,55.1,53.4,29.87,West,262,0.0,0.0,94,0.00,,FEW039,0.00,16.00,VWS V14.01,2013-06-18 09:21:00,
2013-06-18 05:31:00,55.3,53.9,29.87,West,262,0.0,2.0,95,0.00,,FEW039,0.00,30.00,VWS V14.01,2013-06-18 09:31:00,
2013-06-18 05:41:00,55.4,54.0,29.87,West,262,0.0,0.0,95,0.00,,FEW039,0.00,33.00,VWS V14.01,2013-06-18 09:41:00,
2013-06-18 05:51:00,55.6,54.2,29.87,West,262,0.0,0.0,95,0.00,,FEW039,0.00,37.00,VWS V14.01,2013-06-18 09:51:00,
2013-06-18 06:01:00,55.7,54.3,29.87,West,262,0.0,0.0,95,0.00,,FEW039,0.00,37.00,VWS V14.01,2013-06-18 10:01:00,
2013-06-18 06:11:00,56.0,54.9,29.87,West,262,0.0,0.0,96,0.00,,CLR,0.00,39.00,VWS V14.01,2013-06-18 10:11:00,
2013-06-18 06:21:00,56.3,55.2,29.87,West,262,0.0,0.0,96,0.00,,CLR,0.00,49.00,VWS V14.01,2013-06-18 10:21:00,
2013-06-18 06:31:00,56.7,55.6,29.87,West,262,0.0,0.0,96,0.00,,CLR,0.00,58.00,VWS V14.01,2013-06-18 10:31:00,
2013-06-18 06:41:00,57.0,55.6,29.87,West,262,2.0,2.0,95,0.00,,CLR,0.00,51.00,VWS V14.01,2013-06-18 10:41:00,
2013-06-18 06:51:00,57.6,55.9,29.88,West,262,0.0,2.0,94,0.00,,CLR,0.00,46.00,VWS V14.01,2013-06-18 10:51:00,
2013-06-18 07:11:00,58.0,55.1,29.89,West,262,0.0,0.0,90,0.00,,CLR,0.00,65.00,VWS V14.01,2013-06-18 11:11:00,
2013-06-18 07:21:00,58.9,54.1,29.89,West,262,0.0,1.0,84,0.00,,CLR,0.00,95.00,VWS V14.01,2013-06-18 11:21:00,
2013-06-18 07:31:00,59.6,53.4,29.89,West,262,0.0,1.0,80,0.00,,CLR,0.00,98.00,VWS V14.01,2013-06-18 11:31:00,
2013-06-18 07:41:00,60.1,52.9,29.89,West,262,0.0,2.0,77,0.00,,CLR,0.00,98.00,VWS V14.01,2013-06-18 11:41:00,
2013-06-18 07:51:00,60.2,53.3,29.89,West,262,0.0,1.0,78,0.00,,CLR,0.00,146.00,VWS V14.01,2013-06-18 11:51:00,
2013-06-18 08:02:00,60.5,53.3,29.89,West,262,0.0,3.0,77,0.00,,CLR,0.00,142.00,VWS V14.01,2013-06-18 12:02:00,
2013-06-18 08:11:00,61.2,53.9,29.89,West,262,0.0,4.0,77,0.00,,CLR,0.00,174.00,VWS V14.01,2013-06-18 12:11:00,
2013-06-18 08:21:00,61.6,53.6,29.89,West,262,2.0,4.0,75,0.00,,CLR,0.00,174.00,VWS V14.01,2013-06-18 12:21:00,
2013-06-18 08:31:00,62.0,52.5,29.90,West,262,2.0,5.0,71,0.00,,CLR,0.00,172.00,VWS V14.01,2013-06-18 12:31:00,
2013-06-18 08:41:00,62.1,53.0,29.90,West,262,4.0,5.0,72,0.00,,CLR,0.00,246.00,VWS V14.01,2013-06-18 12:41:00,
2013-06-18 08:51:00,62.3,53.2,29.90,West,262,2.0,5.0,72,0.00,,CLR,0.00,107.00,VWS V14.01,2013-06-18 12:51:00,
2013-06-18 09:01:00,61.6,55.0,29.91,West,262,2.0,4.0,79,0.00,,CLR,0.00,114.00,VWS V14.01,2013-06-18 13:01:00,
2013-06-18 09:11:00,60.9,55.7,29.91,West,262,1.0,2.0,83,0.00,,CLR,0.00,83.00,VWS V14.01,2013-06-18 13:11:00,
2013-06-18 09:21:00,60.5,56.0,29.91,West,262,0.0,4.0,85,0.00,,CLR,0.00,67.00,VWS V14.01,2013-06-18 13:21:00,
2013-06-18 09:31:00,59.9,56.0,29.90,West,262,0.0,0.0,87,0.00,,CLR,0.00,79.00,VWS V14.01,2013-06-18 13:31:00,
2013-06-18 09:41:00,59.8,56.6,29.90,WNW,300,0.0,0.0,89,0.00,,SCT100,0.00,88.00,VWS V14.01,2013-06-18 13:41:00,
2013-06-18 09:51:00,59.8,56.9,29.90,WNW,300,0.0,3.0,90,0.00,,SCT100,0.00,62.00,VWS V14.01,2013-06-18 13:51:00,
2013-06-18 10:01:00,59.8,57.2,29.90,WNW,300,0.0,0.0,91,0.01,,SCT100,0.01,77.00,VWS V14.01,2013-06-18 14:01:00,
2013-06-18 10:11:00,59.6,57.3,29.90,WNW,300,2.0,3.0,92,0.01,,BKN100,0.01,84.00,VWS V14.01,2013-06-18 14:11:00,
2013-06-18 10:21:00,59.8,57.8,29.91,WNW,300,0.0,3.0,93,0.01,,BKN100,0.01,104.00,VWS V14.01,2013-06-18 14:21:00,
2013-06-18 10:31:00,59.9,57.3,29.91,West,262,0.0,5.0,91,0.01,,BKN100,0.01,165.00,VWS V14.01,2013-06-18 14:31:00,
2013-06-18 10:41:00,60.9,57.3,29.91,West,261,3.0,6.0,88,0.01,,BKN100,0.01,97.00,VWS V14.01,2013-06-18 14:41:00,
2013-06-18 10:51:00,61.0,56.8,29.91,West,261,1.0,3.0,86,0.01,,BKN100,0.01,111.00,VWS V14.01,2013-06-18 14:51:00,
2013-06-18 11:01:00,61.5,57.3,29.92,West,261,4.0,6.0,86,0.01,,BKN100,0.01,79.00,VWS V14.01,2013-06-18 15:01:00,
2013-06-18 11:11:00,61.5,57.3,29.92,WNW,297,5.0,6.0,86,0.00,,BKN100,0.01,33.00,VWS V14.01,2013-06-18 15:11:00,
2013-06-18 11:21:00,61.2,55.7,29.94,NNW,335,4.0,9.0,82,0.00,,BKN100,0.01,25.00,VWS V14.01,2013-06-18 15:21:00,
2013-06-18 11:31:00,61.0,53.8,29.95,NNW,345,3.0,9.0,77,0.00,,BKN100,0.01,28.00,VWS V14.01,2013-06-18 15:31:00,
2013-06-18 11:41:00,60.7,52.7,29.95,WNW,300,5.0,9.0,75,0.00,,BKN100,0.01,39.00,VWS V14.01,2013-06-18 15:41:00,
2013-06-18 11:51:00,60.1,52.2,29.95,North,354,3.0,10.0,75,0.00,,BKN100,0.01,54.00,VWS V14.01,2013-06-18 15:51:00,
2013-06-18 12:01:00,58.0,52.9,29.95,WNW,302,2.0,7.0,83,0.02,,OVC048,0.03,69.00,VWS V14.01,2013-06-18 16:01:00,
2013-06-18 12:11:00,56.7,53.8,29.95,WNW,302,0.0,2.0,90,0.03,,OVC048,0.04,107.00,VWS V14.01,2013-06-18 16:11:00,
2013-06-18 12:21:00,57.2,55.5,29.95,WNW,302,0.0,0.0,94,0.03,,OVC048,0.04,255.00,VWS V14.01,2013-06-18 16:21:00,
2013-06-18 12:31:00,58.1,56.4,29.94,WNW,295,2.0,4.0,94,0.03,,OVC048,0.04,515.00,VWS V14.01,2013-06-18 16:31:00,
2013-06-18 12:41:00,59.8,57.2,29.94,West,267,3.0,5.0,91,0.03,,OVC048,0.04,283.00,VWS V14.01,2013-06-18 16:41:00,
2013-06-18 12:51:00,59.3,56.1,29.94,West,262,0.0,4.0,89,0.03,,OVC048,0.04,251.00,VWS V14.01,2013-06-18 16:51:00,
2013-06-18 13:01:00,59.2,56.3,29.92,West,262,0.0,0.0,90,0.03,,OVC048,0.04,301.00,VWS V14.01,2013-06-18 17:01:00,
2013-06-18 13:11:00,60.2,55.7,29.92,West,262,0.0,3.0,85,0.01,,OVC060,0.04,297.00,VWS V14.01,2013-06-18 17:11:00,
2013-06-18 13:21:00,60.9,58.0,29.92,West,259,1.0,3.0,90,0.00,,OVC060,0.04,821.00,VWS V14.01,2013-06-18 17:21:00,
2013-06-18 13:31:00,60.1,56.8,29.92,West,259,3.0,3.0,89,0.00,,OVC060,0.04,58.00,VWS V14.01,2013-06-18 17:31:00,
2013-06-18 13:41:00,59.5,56.9,29.92,West,276,1.0,5.0,91,0.00,,OVC060,0.04,90.00,VWS V14.01,2013-06-18 17:41:00,
2013-06-18 13:51:00,59.2,56.3,29.92,WSW,251,3.0,4.0,90,0.00,,OVC060,0.04,72.00,VWS V14.01,2013-06-18 17:51:00,
2013-06-18 14:01:00,59.5,57.5,29.92,NNE,25,0.0,3.0,93,0.00,,OVC060,0.04,97.00,VWS V14.01,2013-06-18 18:01:00,
2013-06-18 14:11:00,59.3,57.6,29.92,NNE,25,0.0,0.0,94,0.01,,BKN085,0.05,91.00,VWS V14.01,2013-06-18 18:11:00,
2013-06-18 14:21:00,59.2,57.8,29.92,North,4,0.0,0.0,95,0.01,,BKN085,0.05,65.00,VWS V14.01,2013-06-18 18:21:00,
2013-06-18 14:31:00,59.9,58.5,29.91,West,269,2.0,3.0,95,0.01,,BKN085,0.05,162.00,VWS V14.01,2013-06-18 18:31:00,
2013-06-18 14:41:00,59.6,57.3,29.91,West,269,4.0,5.0,92,0.01,,BKN085,0.05,104.00,VWS V14.01,2013-06-18 18:41:00,
2013-06-18 14:51:00,59.9,57.3,29.91,West,268,0.0,4.0,91,0.01,,BKN085,0.05,139.00,VWS V14.01,2013-06-18 18:51:00,
2013-06-18 15:01:00,60.5,57.6,29.91,West,268,3.0,4.0,90,0.01,,BKN085,0.05,163.00,VWS V14.01,2013-06-18 19:01:00,
2013-06-18 15:11:00,60.5,56.6,29.91,WNW,300,3.0,5.0,87,0.01,,OVC075,0.05,93.00,VWS V14.01,2013-06-18 19:11:00,
2013-06-18 15:21:00,60.5,56.3,29.91,NW,310,0.0,4.0,86,0.00,,OVC075,0.05,134.00,VWS V14.01,2013-06-18 19:21:00,
2013-06-18 15:31:00,60.7,56.8,29.91,NW,309,3.0,5.0,87,0.00,,OVC075,0.05,105.00,VWS V14.01,2013-06-18 19:31:00,
2013-06-18 15:41:00,60.5,57.9,29.91,WNW,300,2.0,5.0,91,0.00,,OVC075,0.05,127.00,VWS V14.01,2013-06-18 19:41:00,
2013-06-18 15:51:00,59.9,57.0,29.91,WNW,300,0.0,4.0,90,0.00,,OVC075,0.05,121.00,VWS V14.01,2013-06-18 19:51:00,
2013-06-18 16:01:00,60.7,57.4,29.90,WNW,300,3.0,4.0,89,0.00,,OVC075,0.05,221.00,VWS V14.01,2013-06-18 20:01:00,
2013-06-18 16:11:00,61.0,56.5,29.90,WNW,300,3.0,4.0,85,0.00,,OVC085,0.05,137.00,VWS V14.01,2013-06-18 20:11:00,
2013-06-18 16:21:00,60.5,57.6,29.89,WNW,300,0.0,3.0,90,0.00,,OVC085,0.05,90.00,VWS V14.01,2013-06-18 20:21:00,
2013-06-18 16:31:00,60.1,57.5,29.90,WNW,300,0.0,2.0,91,0.00,,OVC085,0.05,98.00,VWS V14.01,2013-06-18 20:31:00,
2013-06-18 16:41:00,59.8,56.6,29.90,WNW,300,0.0,0.0,89,0.00,,OVC085,0.05,105.00,VWS V14.01,2013-06-18 20:41:00,
2013-06-18 16:51:00,59.3,55.8,29.90,WNW,300,0.0,0.0,88,0.00,,OVC085,0.05,105.00,VWS V14.01,2013-06-18 20:51:00,
2013-06-18 17:01:00,59.5,56.3,29.91,WNW,300,3.0,4.0,89,0.00,,OVC085,0.05,67.00,VWS V14.01,2013-06-18 21:01:00,
2013-06-18 17:11:00,59.9,57.0,29.91,NW,309,0.0,5.0,90,0.00,,OVC075,0.05,56.00,VWS V14.01,2013-06-18 21:11:00,
2013-06-18 17:21:00,59.2,56.6,29.91,NW,314,0.0,0.0,91,0.00,,OVC075,0.05,46.00,VWS V14.01,2013-06-18 21:21:00,
2013-06-18 17:31:00,59.0,56.7,29.90,NW,314,0.0,0.0,92,0.00,,OVC075,0.05,49.00,VWS V14.01,2013-06-18 21:31:00,
2013-06-18 17:41:00,58.3,55.4,29.90,NW,314,0.0,0.0,90,0.00,,OVC075,0.05,44.00,VWS V14.01,2013-06-18 21:41:00,
2013-06-18 17:51:00,58.7,56.4,29.91,NW,314,0.0,0.0,92,0.00,,OVC075,0.05,33.00,VWS V14.01,2013-06-18 21:51:00,
2013-06-18 18:01:00,58.4,56.4,29.91,NW,314,0.0,0.0,93,0.00,,OVC075,0.05,46.00,VWS V14.01,2013-06-18 22:01:00,
2013-06-18 18:11:00,58.4,56.7,29.91,NW,314,0.0,0.0,94,0.00,,OVC075,0.05,40.00,VWS V14.01,2013-06-18 22:11:00,
2013-06-18 18:21:00,58.4,57.0,29.91,NW,314,0.0,0.0,95,0.00,,OVC075,0.05,32.00,VWS V14.01,2013-06-18 22:21:00,
2013-06-18 18:31:00,58.4,57.0,29.91,NW,314,0.0,0.0,95,0.00,,OVC075,0.05,37.00,VWS V14.01,2013-06-18 22:31:00,
2013-06-18 18:41:00,58.6,57.5,29.91,NW,314,0.0,0.0,96,0.00,,OVC075,0.05,47.00,VWS V14.01,2013-06-18 22:41:00,
2013-06-18 18:51:00,58.4,57.3,29.90,NW,314,0.0,0.0,96,0.00,,OVC075,0.05,65.00,VWS V14.01,2013-06-18 22:51:00,
2013-06-18 19:01:00,58.7,57.6,29.90,NW,314,0.0,0.0,96,0.00,,OVC075,0.05,125.00,VWS V14.01,2013-06-18 23:01:00,
2013-06-18 19:11:00,59.2,58.1,29.90,NW,314,0.0,3.0,96,0.00,,OVC075,0.05,72.00,VWS V14.01,2013-06-18 23:11:00,
2013-06-18 19:21:00,58.9,57.5,29.90,WNW,297,3.0,4.0,95,0.00,,OVC075,0.05,60.00,VWS V14.01,2013-06-18 23:21:00,
2013-06-18 19:31:00,58.9,57.5,29.90,WSW,240,0.0,3.0,95,0.00,,OVC075,0.05,53.00,VWS V14.01,2013-06-18 23:31:00,
2013-06-18 19:41:00,58.9,57.5,29.90,WSW,240,0.0,2.0,95,0.00,,OVC075,0.05,47.00,VWS V14.01,2013-06-18 23:41:00,
2013-06-18 19:51:00,58.9,57.5,29.90,WSW,240,0.0,2.0,95,0.00,,OVC075,0.05,35.00,VWS V14.01,2013-06-18 23:51:00,
2013-06-18 20:01:00,58.7,57.6,29.90,WSW,240,0.0,0.0,96,0.00,,OVC075,0.05,19.00,VWS V14.01,2013-06-19 00:01:00,
2013-06-18 20:12:00,58.3,57.2,29.90,WSW,240,0.0,0.0,96,0.00,,BKN110,0.05,18.00,VWS V14.01,2013-06-19 00:12:00,
2013-06-18 20:21:00,58.0,56.9,29.90,WSW,240,0.0,2.0,96,0.00,,BKN110,0.05,14.00,VWS V14.01,2013-06-19 00:21:00,
2013-06-18 20:31:00,58.0,56.9,29.90,WSW,240,0.0,0.0,96,0.00,,BKN110,0.05,7.00,VWS V14.01,2013-06-19 00:31:00,
2013-06-18 20:41:00,57.5,56.7,29.90,WSW,240,0.0,2.0,97,0.00,,BKN110,0.05,5.00,VWS V14.01,2013-06-19 00:41:00,
2013-06-18 20:51:00,57.3,56.5,29.89,WSW,240,0.0,0.0,97,0.00,,BKN110,0.05,0.00,VWS V14.01,2013-06-19 00:51:00,
2013-06-18 21:02:00,57.0,56.4,29.89,WSW,240,0.0,0.0,98,0.00,,BKN110,0.05,0.00,VWS V14.01,2013-06-19 01:02:00,
2013-06-18 21:11:00,56.9,56.3,29.89,WSW,240,0.0,0.0,98,0.00,,OVC110,0.05,0.00,VWS V14.01,2013-06-19 01:11:00,
2013-06-18 21:22:00,56.5,55.9,29.90,WSW,240,0.0,0.0,98,0.00,,OVC110,0.05,0.00,VWS V14.01,2013-06-19 01:22:00,
2013-06-18 21:31:00,56.3,55.8,29.91,WSW,240,0.0,0.0,98,0.00,,OVC110,0.05,0.00,VWS V14.01,2013-06-19 01:31:00,
2013-06-18 21:41:00,56.2,55.9,29.91,WSW,240,0.0,0.0,99,0.00,,OVC110,0.05,0.00,VWS V14.01,2013-06-19 01:41:00,
2013-06-18 21:51:00,56.2,55.9,29.91,WSW,240,0.0,0.0,99,0.00,,OVC110,0.05,0.00,VWS V14.01,2013-06-19 01:51:00,
2013-06-18 22:01:00,56.0,55.7,29.92,WSW,240,0.0,0.0,99,0.00,,OVC110,0.05,0.00,VWS V14.01,2013-06-19 02:01:00,
2013-06-18 22:11:00,55.9,55.6,29.92,WSW,240,0.0,0.0,99,0.00,,BKN110,0.05,0.00,VWS V14.01,2013-06-19 02:11:00,
2013-06-18 22:22:00,55.9,55.6,29.91,WSW,240,0.0,0.0,99,0.00,,BKN110,0.05,0.00,VWS V14.01,2013-06-19 02:22:00,
2013-06-18 22:32:00,55.6,55.3,29.91,WSW,240,0.0,0.0,99,0.00,,BKN110,0.05,0.00,VWS V14.01,2013-06-19 02:32:00,
2013-06-18 22:41:00,55.3,55.3,29.91,WSW,240,0.0,0.0,100,0.00,,BKN110,0.05,0.00,VWS V14.01,2013-06-19 02:41:00,
2013-06-18 22:52:00,55.0,55.0,29.91,WSW,240,0.0,0.0,100,0.00,,BKN110,0.05,0.00,VWS V14.01,2013-06-19 02:52:00,
2013-06-18 23:01:00,55.0,55.0,29.90,WSW,240,0.0,0.0,100,0.00,,BKN110,0.05,0.00,VWS V14.01,2013-06-19 03:01:00,
2013-06-18 23:11:00,55.0,55.0,29.90,WSW,240,0.0,0.0,100,0.00,,SCT110,0.05,0.00,VWS V14.01,2013-06-19 03:11:00,
2013-06-18 23:21:00,55.1,55.1,29.91,WSW,240,0.0,0.0,100,0.00,,SCT110,0.05,0.00,VWS V14.01,2013-06-19 03:21:00,
2013-06-18 23:31:00,55.3,55.3,29.90,WSW,240,0.0,0.0,100,0.00,,SCT110,0.05,0.00,VWS V14.01,2013-06-19 03:31:00,
2013-06-18 23:41:00,55.1,55.1,29.90,WSW,240,0.0,0.0,100,0.00,,SCT110,0.05,0.00,VWS V14.01,2013-06-19 03:41:00,
2013-06-18 23:51:00,55.1,55.1,29.91,WSW,240,0.0,0.0,100,0.00,,SCT110,0.05,0.00,VWS V14.01,2013-06-19 03:51:00,